[[{"header":{"parameterUnit":"m.s-1","parameterCategory":1,"la1":30.2991,"la2":30.254,"lo1":-89.0895,"lo2":-89.0444,"dy":0.0017,"dx":0.0017,"nx":28,"ny":28,"refTime":"2023-08-23T03:00:00:Z","depth":0,"parameterNumber":2,"parameterNumberName":"U-component_of_WINDS"},"data":[0,0,0,0,0,0,0,0,0,0,0,0,0,0,0,0,0,0,0,0,0,0,0,0,0,0,0,0,0,0,0,0,0,0,0,0,0,0,0,0,0,0,0,0,0,0,0,0,0,0,0,0,0,0,0,0,0,0,-2.4935,-2.4934,0,-2.4876,-2.4875,-2.4874,-2.4805,-2.4804,-2.4803,-2.4802,-2.4741,-2.474,-2.474,0,0,0,0,0,0,0,0,0,0,0,0,0,-2.4989,-2.4988,-2.4935,-2.4934,-2.4933,-2.4876,-2.4875,-2.4874,-2.4805,-2.4804,-2.4803,-2.4801,-2.4741,-2.4741,-2.474,0,0,0,0,0,0,0,0,0,0,0,0,0,-2.4951,-2.4988,-2.4935,-2.4892,-2.4887,-2.4876,-2.4875,-2.4874,-2.4805,-2.4804,-2.4802,-2.4801,-2.4741,-2.4741,-2.474,-2.4766,0,0,-2.4737,-2.4736,0,0,0,0,0,0,0,0,-2.4953,-2.4949,-2.4899,-2.4895,-2.489,-2.4846,-2.4872,-2.4838,-2.4806,-2.4837,-2.4802,-2.48,-2.4777,-2.4773,-2.4766,-2.4763,-2.476,-2.4737,-2.4736,-2.4736,-2.4735,0,0,0,0,0,0,0,-2.4956,-2.4951,-2.4911,-2.4898,-2.4893,-2.4876,-2.4869,-2.4865,-2.4817,-2.4834,-2.4829,-2.4823,-2.4774,-2.4767,-2.4764,-2.4759,-2.4737,-2.4736,-2.4735,-2.4735,-2.4777,-2.4778,0,0,0,0,0,0,-2.4965,-2.4954,-2.4913,-2.491,-2.4918,-2.4876,-2.4868,-2.4862,-2.4816,-2.4808,-2.4824,-2.482,-2.4769,-2.4765,-2.4761,-2.4789,-2.4736,-2.4735,-2.4734,-2.4775,-2.4777,-2.4779,0,0,0,0,0,0,-2.4967,-2.4962,-2.4916,-2.4931,-2.4923,-2.4877,-2.487,-2.4861,-2.4854,-2.4809,-2.48,-2.4825,-2.4768,-2.4763,-2.4766,-2.4786,-2.4734,-2.4734,-2.4773,-2.4776,-2.4778,-2.4846,0,0,0,0,0,0,-2.4968,-2.4963,-2.4972,-2.4931,-2.4923,-2.4921,-2.4871,-2.4861,-2.4852,-2.4846,-2.4807,-2.48,-2.4766,-2.4767,-2.4765,-2.4784,-2.4733,-2.4771,-2.4774,-2.4777,-2.4841,-2.485,-2.4858,0,0,0,0,0,-2.4971,-2.4993,-2.4973,-2.4968,-2.4933,-2.4922,-2.4917,-2.4878,-2.4854,-2.4863,-2.4835,-2.4801,-2.4785,-2.4768,-2.4765,-2.4784,-2.477,-2.4773,-2.4777,-2.4838,-2.4848,-2.4858,0,0,0,0,0,0,-2.5036,-2.4987,-2.4964,-2.4973,-2.4953,-2.491,-2.492,-2.489,-2.4876,-2.487,-2.4823,-2.4815,-2.4824,-2.4804,-2.4786,-2.4808,-2.4772,-2.4776,-2.482,-2.483,-2.4838,-2.4842,-2.4732,0,0,0,0,0,-2.5052,-2.5047,-2.5004,-2.5017,-2.5008,-2.4966,-2.496,-2.4932,-2.4908,-2.4899,-2.487,-2.4849,-2.4839,-2.4834,-2.4822,-2.4839,-2.483,-2.4851,-2.4859,-2.4866,-2.4869,-2.4878,-2.4887,-2.4792,-2.4791,-2.4791,0,0,-2.5084,-2.5057,-2.5056,-2.503,-2.501,-2.5006,-2.4959,-2.4956,-2.4953,-2.4898,-2.4899,-2.4879,-2.4851,-2.4862,-2.4865,-2.4846,-2.4894,-2.4871,-2.4877,-2.4876,-2.4883,-2.4892,-2.49,-2.4794,-2.4794,-2.4793,0,0,-2.5141,-2.5119,-2.5128,-2.511,-2.5082,-2.5054,-2.5057,-2.5019,-2.5003,-2.5004,-2.4963,-2.4959,-2.4943,-2.4926,-2.4915,-2.4969,-2.4937,-2.4967,-2.5009,-2.5018,-2.5026,-2.5032,-2.5051,-2.5059,-2.497,-2.497,-2.4971,0,-2.5184,-2.5177,-2.5136,-2.5137,-2.5127,-2.5078,-2.5087,-2.5072,-2.5041,-2.5036,-2.5015,-2.4995,-2.4974,-2.498,-2.4994,-2.4986,-2.4988,-2.497,-2.5028,-2.5034,-2.5039,-2.5057,-2.5065,-2.4974,-2.4974,-2.4973,-2.4973,0,-2.5232,-2.5228,-2.5238,-2.521,-2.5202,-2.5207,-2.5168,-2.5164,-2.5138,-2.5114,-2.5116,-2.5089,-2.5071,-2.5071,-2.5045,-2.5075,-2.5064,-2.5037,-2.5,-2.5053,-2.5069,-2.5075,-2.4979,-2.4978,-2.4977,-2.4976,0,0,-2.5325,-2.5277,-2.5282,-2.5269,-2.5236,-2.5232,-2.5236,-2.5219,-2.5217,-2.5199,-2.5201,-2.519,-2.5166,-2.5154,-2.5126,-2.5134,-2.5179,-2.5106,-2.5104,-2.512,-2.5211,-2.5231,-2.5239,-2.5159,-2.516,-2.5161,-2.5213,0,-2.5375,-2.5378,-2.5343,-2.5356,-2.5352,-2.5307,-2.5311,-2.5291,-2.5269,-2.5263,-2.5239,-2.5232,-2.5199,-2.5192,-2.5198,-2.5172,-2.5197,-2.5168,-2.5161,-2.5161,-2.5168,-2.5248,-2.5268,-2.5318,-2.5219,-2.522,-2.5221,0,-2.5432,-2.5418,-2.5431,-2.5399,-2.5396,-2.5399,-2.5383,-2.5378,-2.5355,-2.5339,-2.5327,-2.5296,-2.5298,-2.5265,-2.5268,-2.525,-2.5245,-2.5232,-2.5233,-2.523,-2.5193,-2.5246,-2.5333,-2.534,-2.523,-2.5229,-2.5229,0,-2.5499,-2.5483,-2.5489,-2.548,-2.5442,-2.5446,-2.5431,-2.5407,-2.54,-2.5386,-2.5382,-2.5368,-2.5361,-2.5352,-2.5318,-2.5297,-2.5326,-2.5289,-2.5312,-2.5313,-2.5318,-2.5318,-2.5405,-2.5318,-2.5317,-2.5317,-2.5317,0,-2.5558,-2.5567,-2.5519,-2.5522,-2.5532,-2.5493,-2.5504,-2.5484,-2.5464,-2.5463,-2.5425,-2.5425,-2.5382,-2.5378,-2.5352,-2.5359,-2.5356,-2.5343,-2.5336,-2.5346,-2.5347,-2.5341,-2.5336,-2.5319,-2.5319,-2.5318,-2.5318,0,-2.5633,-2.5601,-2.5604,-2.5569,-2.5561,-2.557,-2.554,-2.5542,-2.5519,-2.5519,-2.5517,-2.548,-2.5474,-2.544,-2.5426,-2.5409,-2.5425,-2.5411,-2.5432,-2.5427,-2.5452,-2.545,-2.5537,-2.5546,-2.5454,-2.5455,-2.5456,0,-2.5671,-2.5678,-2.5644,-2.5641,-2.5628,-2.5624,-2.5617,-2.558,-2.5575,-2.5552,-2.5557,-2.5548,-2.5538,-2.553,-2.5502,-2.5492,-2.5477,-2.5509,-2.5475,-2.5486,-2.5477,-2.5477,-2.5477,-2.5515,-2.5516,-2.5517,-2.5518,0,-2.5744,-2.5728,-2.572,-2.5707,-2.57,-2.5688,-2.5674,-2.5674,-2.5633,-2.563,-2.5623,-2.5616,-2.5602,-2.5593,-2.5579,-2.5563,-2.5534,-2.5529,-2.5534,-2.5543,-2.5555,-2.5549,-2.5451,-2.5527,-2.5526,-2.5525,-2.5525,-2.5525,-2.5801,-2.5805,-2.5783,-2.5776,-2.5761,-2.575,-2.575,-2.5728,-2.5722,-2.5708,-2.5687,-2.5683,-2.5663,-2.564,-2.5628,-2.5625,-2.5608,-2.5615,-2.5617,-2.5619,-2.5624,-2.5557,-2.5623,-2.5622,-2.5622,-2.5622,-2.5622,0,-2.5871,-2.5855,-2.5849,-2.5831,-2.5826,-2.58,-2.5784,-2.5781,-2.5778,-2.5762,-2.5754,-2.5748,-2.574,-2.5713,-2.5703,-2.5706,-2.5693,-2.5705,-2.5703,-2.57,-2.564,-2.5636,-2.5716,-2.5716,-2.5716,-2.5716,-2.5716,-2.5716,-2.5906,-2.5912,-2.5895,-2.5894,-2.5878,-2.5874,-2.5867,-2.5857,-2.5844,-2.5838,-2.5832,-2.5815,-2.5795,-2.5783,-2.5776,-2.5768,-2.5766,-2.5782,-2.577,-2.5714,-2.5705,-2.5696,-2.5693,-2.5782,-2.5782,-2.5831,-2.5831,-2.5832]},{"header":{"parameterUnit":"m.s-1","parameterCategory":1,"la1":30.2991,"la2":30.254,"lo1":-89.0895,"lo2":-89.0444,"dy":0.0017,"dx":0.0017,"nx":28,"ny":28,"refTime":"2023-08-23T03:00:00:Z","depth":0,"parameterNumber":3,"parameterNumberName":"V-component_of_WINDS"},"data":[0,0,0,0,0,0,0,0,0,0,0,0,0,0,0,0,0,0,0,0,0,0,0,0,0,0,0,0,0,0,0,0,0,0,0,0,0,0,0,0,0,0,0,0,0,0,0,0,0,0,0,0,0,0,0,0,0,0,2.8137,2.8138,0,2.818,2.8181,2.8181,2.8234,2.8234,2.8235,2.8236,2.8277,2.8277,2.8277,0,0,0,0,0,0,0,0,0,0,0,0,0,2.8097,2.8097,2.8137,2.8138,2.8138,2.818,2.8181,2.8181,2.8233,2.8234,2.8235,2.8236,2.8277,2.8277,2.8277,0,0,0,0,0,0,0,0,0,0,0,0,0,2.8124,2.8097,2.8137,2.8169,2.8173,2.818,2.8181,2.8182,2.8233,2.8234,2.8236,2.8237,2.8277,2.8277,2.8277,2.8256,0,0,2.8279,2.8279,0,0,0,0,0,0,0,0,2.8123,2.8126,2.8164,2.8167,2.8171,2.8203,2.8182,2.8206,2.8233,2.821,2.8236,2.8237,2.8251,2.8254,2.8259,2.8258,2.8259,2.8279,2.8279,2.8279,2.828,0,0,0,0,0,0,0,2.8121,2.8124,2.8154,2.8164,2.8169,2.8181,2.8186,2.8187,2.8223,2.8212,2.8216,2.8221,2.8253,2.8258,2.826,2.826,2.8279,2.8279,2.828,2.828,2.8242,2.8241,0,0,0,0,0,0,2.8114,2.8122,2.8153,2.8155,2.8149,2.818,2.8186,2.8191,2.8223,2.8229,2.822,2.8223,2.8257,2.826,2.8262,2.8238,2.8279,2.828,2.828,2.8244,2.8242,2.8241,0,0,0,0,0,0,2.8113,2.8117,2.8151,2.814,2.8145,2.818,2.8185,2.8191,2.8197,2.8229,2.8235,2.8218,2.8258,2.8261,2.8257,2.824,2.828,2.8281,2.8245,2.8243,2.8241,2.819,0,0,0,0,0,0,2.8112,2.8116,2.8109,2.814,2.8146,2.8146,2.8184,2.8191,2.8198,2.8203,2.8229,2.8235,2.8259,2.8256,2.8257,2.8241,2.8281,2.8247,2.8244,2.8242,2.8193,2.8186,2.818,0,0,0,0,0,2.811,2.8092,2.8108,2.8111,2.8137,2.8145,2.8148,2.8178,2.8196,2.8189,2.8209,2.8234,2.8242,2.8255,2.8257,2.8241,2.8248,2.8245,2.8242,2.8196,2.8188,2.8181,0,0,0,0,0,0,2.8057,2.8096,2.8115,2.8106,2.8122,2.8154,2.8145,2.8168,2.8178,2.8182,2.8217,2.8223,2.8214,2.8227,2.8241,2.8221,2.8249,2.8246,2.8213,2.8205,2.8199,2.8195,2.8281,0,0,0,0,0,2.8044,2.8048,2.8082,2.8071,2.8078,2.811,2.8114,2.8136,2.8153,2.816,2.818,2.8195,2.8201,2.8204,2.8211,2.8196,2.8202,2.8186,2.8179,2.8174,2.8171,2.8163,2.8156,2.8231,2.8231,2.8231,0,0,2.8017,2.804,2.804,2.8061,2.8075,2.8077,2.8115,2.8116,2.8117,2.816,2.8157,2.8172,2.8191,2.8181,2.8178,2.8192,2.8151,2.817,2.8166,2.8166,2.8159,2.8152,2.8145,2.8229,2.823,2.823,0,0,2.797,2.7988,2.798,2.7994,2.8017,2.8038,2.8037,2.8065,2.8077,2.8076,2.8107,2.8109,2.8119,2.8131,2.8138,2.8096,2.8119,2.8097,2.8064,2.8055,2.8049,2.8044,2.8028,2.8022,2.8094,2.8094,2.8094,0,2.7933,2.7939,2.7973,2.7972,2.7979,2.8019,2.8011,2.8023,2.8046,2.805,2.8066,2.8079,2.8095,2.8088,2.8077,2.8083,2.808,2.8094,2.8048,2.8043,2.8039,2.8023,2.8017,2.8092,2.8092,2.8092,2.8092,0,2.7893,2.7896,2.7887,2.7909,2.7916,2.7911,2.7943,2.7946,2.7967,2.7987,2.7984,2.8004,2.8016,2.8016,2.8036,2.8012,2.802,2.8042,2.8069,2.8028,2.8014,2.8009,2.8087,2.8088,2.8089,2.809,0,0,2.7811,2.7853,2.7849,2.7859,2.7887,2.789,2.7887,2.79,2.7901,2.7916,2.7913,2.792,2.7941,2.7949,2.7971,2.7964,2.7928,2.7986,2.7987,2.7973,2.79,2.7883,2.7875,2.7944,2.7943,2.7942,2.7898,0,2.7767,2.7765,2.7795,2.7784,2.7787,2.7825,2.7822,2.7838,2.7857,2.7861,2.7881,2.7886,2.7913,2.7918,2.7913,2.7933,2.7913,2.7937,2.794,2.7939,2.7932,2.7868,2.785,2.7807,2.7893,2.7892,2.7892,0,2.7715,2.7728,2.7718,2.7746,2.7749,2.7745,2.7759,2.7764,2.7783,2.7797,2.7806,2.7832,2.783,2.7857,2.7854,2.7869,2.7873,2.7883,2.7882,2.7882,2.7912,2.7865,2.7795,2.7788,2.7884,2.7884,2.7885,0,2.7655,2.767,2.7665,2.7673,2.7707,2.7704,2.7717,2.7738,2.7743,2.7756,2.7759,2.7771,2.7776,2.7784,2.7811,2.7829,2.7804,2.7835,2.7814,2.7813,2.7806,2.7806,2.7733,2.7811,2.7811,2.7811,2.7811,0,2.7602,2.7593,2.7639,2.7635,2.7627,2.7662,2.7652,2.767,2.7688,2.7688,2.7722,2.7721,2.7758,2.7761,2.7783,2.7776,2.7779,2.7789,2.7794,2.7785,2.7783,2.7786,2.7789,2.7809,2.781,2.781,2.781,0,2.7532,2.7562,2.756,2.7592,2.76,2.7592,2.762,2.7617,2.7639,2.7638,2.764,2.7673,2.7678,2.7707,2.7719,2.7733,2.7718,2.7731,2.7712,2.7715,2.7693,2.7694,2.7619,2.761,2.7694,2.7693,2.7692,0,2.7495,2.749,2.7522,2.7525,2.7538,2.7542,2.7549,2.7583,2.7588,2.761,2.7604,2.7613,2.7621,2.7628,2.7652,2.7661,2.7673,2.7646,2.7674,2.7665,2.7671,2.767,2.7669,2.7639,2.7638,2.7637,2.7636,0,2.7427,2.7442,2.745,2.7464,2.747,2.7482,2.7496,2.7497,2.7535,2.7538,2.7545,2.7552,2.7564,2.7572,2.7585,2.7598,2.7623,2.7628,2.7623,2.7612,2.7601,2.7606,2.7694,2.7629,2.7629,2.763,2.763,2.7631,2.7371,2.7368,2.739,2.7398,2.7413,2.7425,2.7425,2.7446,2.7453,2.7466,2.7486,2.749,2.7509,2.7529,2.7541,2.7543,2.7557,2.7551,2.7549,2.7547,2.7541,2.7602,2.7546,2.7546,2.7546,2.7547,2.7547,0,2.7303,2.732,2.7327,2.7346,2.7352,2.7377,2.7393,2.7396,2.7399,2.7416,2.7424,2.7431,2.7438,2.7463,2.7473,2.747,2.7482,2.7471,2.7471,2.7473,2.7529,2.7531,2.7462,2.7462,2.7462,2.7462,2.7462,2.7462,2.7268,2.7264,2.7282,2.7284,2.7301,2.7306,2.7313,2.7324,2.7337,2.7344,2.7351,2.7368,2.7387,2.7399,2.7406,2.7413,2.7415,2.74,2.7411,2.7461,2.747,2.7477,2.7479,2.7401,2.74,2.7355,2.7354,2.7354]}]]